Wind_Speed
30 31 32 33 32 32 32 33 33 34 35 35 36 36 36 36 36 35 36 35 35 35 34 34 34 34 34 35 36 37 37 36 35 35 36 38 39 39 39 40 39 39
30 30 31 31 30 29 28 29 30 30 31 31 32 33 33 33 33 34 34 34 34 34 33 33 34 33 33 32 33 35 37 37 35 35 36 38 40 40 41 41 40 40
27 28 29 29 27 25 25 25 26 26 27 28 29 30 30 30 31 32 32 32 32 32 32 32 32 32 32 31 32 34 35 36 36 35 35 37 39 41 41 41 41 41
22 24 26 25 23 22 22 23 24 24 25 25 26 27 28 28 29 30 30 31 31 31 31 31 31 31 31 31 32 33 35 36 36 35 36 37 38 40 41 41 42 43
18 19 21 21 21 20 21 21 22 22 22 22 23 24 25 25 26 27 28 29 29 30 29 29 30 30 31 32 33 34 34 35 36 36 37 39 38 40 41 41 43 44
18 19 20 21 21 21 21 20 19 19 20 19 19 20 21 22 24 25 26 27 27 28 28 28 28 29 30 31 32 33 34 35 35 36 38 40 40 40 41 41 43 44
17 19 22 24 25 25 23 20 19 19 18 18 17 17 18 19 20 21 22 23 24 25 25 26 27 27 28 30 31 33 34 35 35 36 39 41 41 42 42 42 44 45
12 14 16 19 21 23 22 20 18 17 15 14 12 12 13 14 14 16 17 19 21 22 23 25 26 27 27 29 31 33 34 36 37 38 40 42 43 44 44 44 44 44
11 11 10 11 12 15 16 15 13 12 10 8 7 7 8 9 10 12 14 16 18 20 21 23 24 26 28 29 31 33 35 37 38 40 41 42 44 45 45 44 44 44
10 10 10 9 10 11 11 10 9 8 7 5 4 4 5 7 8 10 13 15 17 19 21 22 23 25 27 30 31 33 35 37 39 40 42 43 44 45 45 44 44 44
8 8 8 8 8 8 8 8 7 6 4 3 3 3 5 7 9 11 13 15 18 20 21 23 24 26 27 29 30 32 34 36 38 39 41 43 44 45 45 45 44 45
8 8 8 8 8 9 9 8 7 6 5 5 6 8 10 12 13 15 16 18 19 21 23 24 26 27 29 30 31 32 34 36 37 38 40 42 43 44 44 44 45 45
7 8 9 9 10 11 12 11 10 10 11 11 13 14 16 18 18 19 20 21 22 23 25 27 28 29 30 31 32 33 34 36 37 38 40 41 42 43 44 44 45 45
9 9 9 9 11 13 15 15 15 15 17 18 19 20 21 22 22 22 23 24 26 27 28 30 31 32 33 33 34 34 35 36 37 38 40 41 42 43 43 44 44 44
14 14 12 11 12 14 16 18 19 20 21 22 23 24 24 24 24 26 27 28 30 31 32 33 34 35 35 35 36 36 36 37 38 39 40 41 42 43 43 43 43 43
17 17 16 16 15 15 16 17 19 21 22 24 25 26 26 27 29 30 31 33 34 34 35 36 37 37 37 36 37 37 37 37 38 40 40 41 41 42 43 43 43 43
16 17 17 17 17 18 18 19 20 21 22 24 25 27 28 30 32 33 34 35 35 36 37 38 39 39 37 37 37 37 37 37 38 39 39 40 40 41 43 44 44 43
15 16 16 17 17 18 19 20 21 21 22 23 24 26 27 29 30 32 34 35 36 37 38 39 39 38 37 36 36 36 36 36 36 37 37 38 38 39 40 41 41 42
15 15 16 16 17 18 19 20 20 21 21 22 22 23 24 25 27 28 30 32 34 36 38 39 39 37 35 34 34 34 34 34 35 36 36 36 37 37 38 38 39 40
14 14 15 15 16 17 18 18 19 19 19 19 20 21 22 22 24 25 27 30 32 34 36 37 37 35 34 33 32 31 31 32 33 34 35 36 36 36 37 38 38 39
13 14 14 15 16 17 17 18 18 19 19 20 21 22 23 23 25 26 28 30 32 34 36 37 36 33 31 31 32 32 30 31 32 33 34 35 35 35 36 37 38 38
12 13 14 15 16 17 17 18 19 20 21 22 24 25 25 26 27 28 29 30 31 33 36 37 37 35 32 29 29 30 31 32 32 34 35 36 36 35 35 35 36 37
12 13 13 14 16 17 17 18 19 20 21 22 24 25 25 26 27 28 29 30 31 32 34 35 36 37 36 31 28 27 29 31 33 34 36 38 38 36 35 35 36 36
15 16 16 16 17 17 18 19 19 20 21 22 23 24 24 25 26 27 27 28 30 31 32 33 33 34 35 34 32 29 28 28 31 34 37 39 40 39 38 37 37 37
18 19 20 20 20 20 20 21 22 22 23 23 24 25 26 26 26 27 27 27 28 29 30 31 31 31 32 32 32 32 31 29 29 33 36 39 40 40 41 41 40 39
20 22 22 23 23 23 23 23 23 24 24 25 26 27 28 28 28 29 29 28 28 29 30 31 31 31 32 32 33 34 34 33 32 32 34 37 38 40 41 42 42 41
Wind_Direction
264 259 255 255 256 255 253 253 254 256 258 260 263 265 267 268 269 269 268 269 269 268 268 267 266 265 264 263 260 257 256 257 257 256 255 254 257 259 260 259 259 258
266 261 255 252 254 255 254 254 256 258 261 263 264 265 266 266 267 267 267 268 269 269 269 267 265 264 264 264 262 259 258 258 257 256 253 252 254 257 259 260 259 258
263 260 256 254 254 254 254 256 258 261 264 266 265 265 264 264 264 265 265 267 268 269 269 267 265 264 264 265 263 260 258 257 258 259 257 253 253 254 256 258 259 258
261 259 257 254 251 250 253 258 261 264 266 267 267 265 263 262 262 262 264 266 267 269 269 268 266 265 266 266 265 262 259 258 260 262 260 258 255 253 254 255 256 257
259 258 256 252 249 249 253 258 264 267 268 270 270 266 264 261 260 261 264 265 266 267 268 268 268 267 267 266 265 263 261 260 261 262 262 262 260 256 254 254 255 256
257 257 256 253 251 251 254 262 269 271 271 272 270 267 264 262 261 263 264 265 267 268 269 270 270 270 269 268 266 264 264 264 264 264 264 265 264 261 258 255 255 255
261 261 260 259 257 255 258 267 272 270 270 271 271 269 267 265 266 268 269 270 270 270 270 271 271 270 269 267 265 264 264 264 265 265 265 266 266 264 262 260 258 257
266 265 263 261 259 257 259 266 268 268 269 269 270 272 271 272 274 275 275 275 274 274 274 273 271 270 268 266 264 263 263 263 263 263 263 264 264 265 264 263 260 258
269 267 263 257 253 253 255 257 257 255 254 255 258 266 273 279 282 281 281 280 279 279 277 275 273 271 269 267 266 265 264 263 264 263 263 263 264 265 265 262 259 258
271 268 262 255 248 244 240 234 226 222 221 224 236 260 280 290 291 288 287 285 284 283 281 279 276 274 272 270 268 268 266 265 265 265 264 264 264 265 264 262 260 260
265 263 259 255 247 232 216 206 200 198 201 209 244 279 294 296 295 292 289 288 287 286 284 282 280 278 277 275 273 271 270 269 267 265 265 265 265 265 264 262 262 262
256 251 248 244 233 217 206 203 202 211 229 248 267 279 285 287 288 287 286 286 286 286 286 284 283 281 279 278 277 275 274 272 269 266 265 264 264 264 263 262 262 262
266 253 245 237 226 217 213 212 216 229 242 252 262 269 274 277 280 281 283 285 288 290 290 289 287 285 282 281 279 277 276 274 272 270 267 264 263 263 263 263 263 263
278 269 256 242 230 227 226 226 231 241 249 254 258 263 267 272 277 282 286 288 291 293 292 289 287 285 283 282 279 277 276 274 273 272 269 266 264 263 263 263 263 263
281 278 273 263 250 242 238 237 239 244 249 253 258 263 269 275 280 284 287 289 290 290 288 286 283 282 282 280 278 276 275 274 273 271 269 267 266 264 263 262 262 263
284 283 281 278 273 267 262 258 255 254 256 260 266 271 276 281 283 284 287 288 288 287 286 285 284 284 284 283 281 279 276 274 272 271 269 267 266 265 264 263 262 262
290 288 287 286 284 282 280 279 277 274 274 275 276 279 281 282 284 286 287 288 288 287 286 285 286 287 289 290 288 285 281 276 274 272 270 269 268 267 266 264 263 262
289 288 288 287 285 285 284 283 284 283 283 284 283 284 284 285 286 287 288 289 288 289 289 288 288 289 291 292 292 290 286 280 277 276 274 273 272 272 271 269 267 267
284 283 284 284 283 284 283 284 285 286 287 288 287 288 288 289 290 291 291 291 291 291 292 291 291 292 292 292 292 290 287 283 280 279 277 277 276 275 275 273 270 268
278 278 280 281 281 283 284 284 286 285 285 285 285 285 286 289 291 292 293 293 292 292 293 293 294 296 296 295 292 290 287 282 280 280 279 279 278 276 275 274 271 269
267 269 271 275 276 279 281 282 282 282 282 281 281 282 283 285 287 288 290 291 292 293 294 296 299 303 303 300 296 293 288 283 280 279 280 281 280 280 278 276 275 272
260 260 262 265 268 270 273 275 277 278 280 280 280 281 282 283 283 284 284 285 287 289 292 294 298 303 307 307 300 294 290 286 283 280 280 280 281 282 283 282 280 277
273 270 267 265 266 268 270 272 274 276 278 279 279 279 280 281 281 281 281 282 283 285 287 290 293 299 305 308 305 297 290 286 285 283 281 281 280 281 283 284 283 282
285 285 284 281 279 279 278 278 278 278 280 281 281 281 280 281 282 282 281 283 283 285 287 288 290 295 300 304 307 305 298 289 285 283 281 281 281 281 282 282 282 283
292 293 294 293 293 294 293 292 292 291 291 290 290 290 289 287 288 286 284 284 285 286 287 288 289 292 296 300 303 306 306 301 291 284 281 281 281 282 281 281 280 280
296 296 298 298 299 299 299 300 301 301 300 300 299 299 297 295 295 294 290 288 288 289 289 289 290 291 294 298 301 303 306 308 302 294 288 284 282 280 279 279 278 278
Height
1477 1477 1478 1478 1479 1480 1481 1482 1483 1484 1484 1485 1485 1485 1486 1486 1487 1487 1488 1488 1489 1489 1490 1491 1491 1492 1493 1493 1494 1495 1495 1496 1496 1496 1496 1495 1495 1495 1495 1495 1495 1495
1473 1473 1474 1475 1476 1477 1478 1479 1480 1480 1481 1482 1482 1482 1483 1484 1484 1484 1484 1485 1485 1485 1486 1487 1487 1487 1488 1489 1489 1490 1490 1491 1492 1492 1492 1491 1490 1490 1489 1490 1490 1490
1470 1470 1471 1472 1473 1474 1475 1476 1477 1477 1478 1478 1479 1479 1480 1480 1481 1481 1481 1482 1482 1482 1482 1483 1483 1483 1484 1485 1485 1485 1486 1486 1487 1488 1488 1487 1487 1486 1485 1485 1485 1486
1466 1467 1468 1469 1470 1471 1472 1473 1474 1474 1475 1475 1476 1476 1476 1477 1477 1478 1478 1478 1478 1479 1479 1480 1480 1480 1481 1481 1482 1482 1482 1483 1484 1485 1484 1483 1483 1482 1482 1482 1481 1481
1464 1464 1465 1466 1467 1468 1469 1470 1471 1471 1472 1472 1473 1473 1473 1473 1474 1474 1474 1475 1475 1475 1476 1476 1477 1477 1478 1478 1478 1478 1479 1479 1480 1480 1479 1478 1479 1478 1478 1478 1477 1476
1462 1462 1463 1464 1464 1465 1467 1467 1468 1469 1469 1469 1469 1469 1470 1470 1470 1471 1471 1471 1472 1472 1472 1473 1473 1473 1474 1474 1474 1474 1474 1474 1475 1475 1474 1473 1473 1473 1473 1473 1471 1471
1459 1459 1460 1461 1461 1463 1464 1465 1466 1466 1466 1466 1466 1466 1466 1467 1467 1468 1468 1468 1469 1469 1469 1469 1469 1469 1469 1469 1469 1469 1469 1469 1469 1469 1468 1467 1467 1467 1467 1466 1466 1465
1456 1456 1457 1457 1458 1460 1461 1462 1463 1463 1463 1463 1463 1464 1464 1464 1465 1465 1465 1465 1465 1465 1465 1465 1465 1465 1465 1464 1464 1464 1464 1463 1463 1463 1463 1462 1462 1460 1460 1460 1460 1459
1454 1454 1454 1455 1455 1457 1458 1459 1460 1460 1460 1460 1461 1461 1461 1462 1462 1462 1462 1462 1462 1462 1461 1461 1461 1460 1460 1460 1459 1459 1458 1458 1458 1457 1457 1456 1456 1455 1455 1456 1455 1455
1453 1453 1453 1453 1454 1455 1455 1456 1457 1457 1458 1458 1458 1459 1459 1459 1459 1459 1459 1459 1458 1458 1458 1457 1457 1456 1456 1456 1455 1455 1454 1453 1453 1453 1452 1452 1451 1451 1451 1451 1451 1450
1451 1451 1451 1452 1452 1453 1454 1455 1455 1456 1456 1457 1457 1457 1457 1457 1457 1457 1456 1456 1456 1455 1455 1454 1454 1453 1453 1452 1452 1451 1450 1449 1449 1449 1448 1447 1447 1447 1447 1447 1447 1446
1449 1449 1450 1450 1450 1451 1452 1453 1454 1454 1455 1455 1455 1455 1455 1455 1454 1454 1454 1453 1453 1453 1452 1451 1451 1451 1450 1449 1449 1448 1447 1446 1445 1445 1444 1443 1443 1443 1443 1443 1443 1442
1449 1448 1448 1448 1449 1449 1450 1451 1451 1452 1452 1452 1452 1452 1452 1452 1451 1451 1451 1451 1450 1450 1450 1449 1448 1447 1447 1446 1445 1444 1443 1442 1441 1441 1440 1439 1439 1439 1439 1439 1439 1439
1448 1448 1447 1447 1448 1448 1448 1449 1449 1449 1449 1449 1449 1449 1449 1448 1448 1448 1448 1448 1447 1447 1446 1446 1445 1443 1443 1442 1441 1440 1440 1438 1437 1436 1435 1435 1434 1434 1434 1434 1434 1434
1447 1447 1446 1446 1446 1447 1447 1446 1446 1446 1446 1446 1446 1446 1446 1446 1445 1445 1444 1444 1444 1443 1442 1441 1440 1439 1439 1438 1437 1436 1436 1434 1433 1432 1431 1430 1429 1429 1429 1429 1429 1429
1444 1445 1445 1445 1445 1445 1445 1445 1445 1445 1444 1444 1444 1444 1444 1443 1443 1442 1441 1441 1440 1439 1438 1437 1436 1435 1435 1434 1434 1433 1432 1431 1429 1428 1427 1426 1425 1424 1423 1423 1423 1424
1442 1442 1442 1442 1442 1442 1442 1442 1442 1442 1442 1442 1442 1441 1441 1440 1439 1439 1438 1437 1436 1435 1434 1433 1432 1431 1431 1430 1430 1429 1428 1427 1425 1423 1422 1421 1420 1418 1417 1417 1417 1418
1439 1439 1439 1439 1439 1439 1439 1439 1439 1439 1439 1438 1438 1438 1437 1436 1436 1435 1434 1434 1432 1431 1429 1428 1428 1427 1427 1426 1425 1424 1423 1422 1420 1419 1417 1415 1414 1413 1412 1411 1411 1411
1435 1435 1435 1436 1435 1435 1435 1435 1435 1435 1435 1434 1434 1433 1433 1432 1432 1431 1430 1429 1428 1426 1425 1424 1423 1423 1423 1422 1421 1419 1418 1417 1415 1413 1412 1410 1409 1408 1407 1406 1406 1406
1432 1432 1432 1432 1432 1432 1432 1432 1431 1431 1431 1431 1430 1429 1429 1429 1428 1427 1426 1425 1423 1422 1420 1419 1419 1419 1418 1417 1416 1415 1413 1412 1410 1409 1407 1406 1405 1404 1404 1403 1402 1402
1429 1429 1429 1429 1429 1429 1429 1429 1428 1428 1428 1427 1426 1426 1425 1425 1424 1423 1422 1421 1419 1417 1415 1414 1414 1414 1414 1413 1412 1410 1409 1407 1405 1404 1403 1401 1400 1400 1400 1399 1398 1398
1427 1427 1427 1427 1426 1426 1426 1426 1425 1425 1424 1424 1423 1422 1422 1421 1420 1419 1418 1417 1416 1414 1411 1409 1409 1409 1409 1408 1407 1406 1405 1403 1401 1399 1398 1396 1396 1396 1396 1395 1395 1394
1425 1424 1424 1424 1424 1423 1423 1423 1422 1422 1421 1420 1419 1419 1418 1418 1417 1416 1415 1413 1412 1411 1409 1407 1405 1404 1403 1402 1401 1400 1399 1398 1397 1395 1393 1392 1391 1391 1391 1390 1390 1389
1423 1422 1421 1421 1421 1421 1420 1420 1419 1419 1418 1417 1416 1415 1415 1414 1413 1412 1411 1410 1409 1408 1406 1404 1402 1401 1399 1398 1396 1395 1394 1393 1392 1390 1388 1387 1386 1387 1387 1386 1385 1385
1421 1420 1419 1418 1418 1418 1417 1417 1416 1416 1415 1414 1413 1412 1411 1411 1410 1408 1407 1406 1405 1404 1402 1401 1399 1398 1397 1395 1392 1391 1389 1388 1387 1385 1382 1382 1382 1382 1381 1381 1380 1380
1420 1419 1417 1416 1416 1415 1415 1414 1413 1413 1412 1411 1410 1409 1408 1407 1406 1404 1403 1402 1401 1400 1398 1397 1395 1394 1393 1391 1389 1387 1385 1384 1382 1380 1378 1377 1377 1376 1375 1374 1374 1374